Retour au catalogue

SL-3 DEB

ActifPO
NORAD 8039·DEBRIS·🇷🇺 Russia

Lancé Jul 11, 1975 depuis Plesetsk Cosmodrome

Loading…

Prochains Passages (prochaines 24 heures)

TLE

FraisSource: Space-Track

Époque: Sep 14, 2026, 13:32 UTC

1 08039U 75064C   26257.56417866  .00000210  00000-0  11349-3 0  9991
2 08039  81.3010 345.7294 0020423 310.1464  49.7917 14.09332616630279

Suivez SL-3 DEB en temps réel avec AllMySat

Download on the App Store